Waarnemingen

Advertentie
Mijn weer
Haparanda A, Zweden (2197): temperatuur & dauwpunt: 20.05.2019 15:00:00 - 26.05.2019 15:00:00 (CEST)Haparanda A, Zweden (2197): windsnelheid & windstoten: 20.05.2019 15:00:00 - 26.05.2019 15:00:00 (CEST)Haparanda A, Zweden (2197): windrichting: 20.05.2019 15:00:00 - 26.05.2019 15:00:00 (CEST)Haparanda A, Zweden (2197): luchtdruk: 20.05.2019 15:00:00 - 26.05.2019 15:00:00 (CEST)Haparanda A, Zweden (2197): zicht: 20.05.2019 15:00:00 - 26.05.2019 15:00:00 (CEST)Haparanda A, Zweden (2197): neerslag: 20.05.2019 15:00:00 - 26.05.2019 15:00:00 (CEST)
Datum & Tijd tt [°C] td [°C] ff [km/u] ff [kn] fx [km/u] fx [kn] dd ppp [hPa] vv [km] rr [mm]
26.05.2019 15:00:00 12,3 5,2 10 5 23 13 ZW 996,6 44 0,0
26.05.2019 14:00:00 12,9 2,4 9 5 22 12 NO 996,7 50 0,0
26.05.2019 13:00:00 14,4 3,5 10 6 21 11 NNO 996,6 48 0,0
26.05.2019 12:00:00 13,0 3,1 10 5 22 12 NO 996,8 50 0,0
26.05.2019 11:00:00 10,5 3,8 7 4 19 10 N 997,1 50 0,0
26.05.2019 10:00:00 12,4 4,1 6 4 18 10 NO 997,1 41 0,0
26.05.2019 09:00:00 9,2 3,8 6 4 19 10 N 997,3 50 0,0
26.05.2019 08:00:00 8,6 4,2 7 4 18 10 N 997,5 50 0,0
26.05.2019 07:00:00 7,7 4,1 9 5 18 10 NNO 997,8 50 0,0
26.05.2019 06:00:00 7,0 4,0 9 5 20 11 N 998,0 50 0,0
26.05.2019 05:00:00 6,3 3,8 6 3 18 10 N 998,4 50 0,0
26.05.2019 04:00:00 6,0 3,8 7 4 17 9 N 998,3 50 0,0
26.05.2019 03:00:00 5,9 4,1 9 5 16 8 N 998,8 50 0,0
26.05.2019 02:00:00 4,9 4,0 5 3 10 6 N 999,2 50 0,0
26.05.2019 01:00:00 5,2 4,0 4 2 11 6 N 999,8 50 0,0
26.05.2019 00:00:00 5,9 4,4 5 3 14 8 N 1000,2 50 0,0
25.05.2019 23:00:00 6,1 4,6 6 3 14 8 N 1000,5 50 0,0
25.05.2019 22:00:00 6,9 4,6 8 4 17 9 N 1000,7 50 0,0
25.05.2019 21:00:00 7,5 4,6 9 5 18 10 NNO 1000,9 50 0,0
25.05.2019 20:00:00 8,0 5,1 11 6 23 12 NNO 1001,3 50 0,0
25.05.2019 19:00:00 8,5 5,2 10 6 22 12 NO 1001,8 50 0,0
25.05.2019 18:00:00 8,8 5,5 11 6 23 12 NNO 1002,3 50 0,0
25.05.2019 17:00:00 8,6 6,2 9 5 23 12 NNO 1002,6 40 0,1
25.05.2019 16:00:00 7,8 5,4 11 6 22 12 NNO 1003,1 48 0,0
25.05.2019 15:00:00 7,7 5,3 10 5 22 12 NNO 1003,4 50 0,0
25.05.2019 14:00:00 7,7 5,3 10 5 22 12 NNO 1003,8 45 0,0
25.05.2019 13:00:00 7,7 6,5 9 5 23 13 NNO 1004,1 50 0,1
25.05.2019 12:00:00 7,2 5,3 11 6 24 13 NNO 1004,2 49 0,0
25.05.2019 11:00:00 6,7 5,0 11 6 22 12 NO 1004,4 50 0,0
25.05.2019 10:00:00 6,6 5,5 10 5 21 12 NO 1004,6 27 0,0
25.05.2019 09:00:00 6,3 5,6 10 5 22 12 NNO 1004,7 25 0,1
25.05.2019 08:00:00 5,9 5,5 10 6 18 10 NNO 1005,0 47 0,1
25.05.2019 07:00:00 5,9 5,6 8 5 22 12 NO 1005,1 17 0,2
25.05.2019 06:00:00 5,4 5,1 9 5 18 10 NNO 1005,4 5 0,2
25.05.2019 05:00:00 5,2 4,9 8 4 16 9 NO 1005,8 9 0,0
25.05.2019 04:00:00 5,1 4,8 7 4 18 10 NO 1006,0 8 0,0
25.05.2019 03:00:00 5,1 4,8 7 4 17 9 NO 1006,3 12 0,1
25.05.2019 02:00:00 5,1 4,8 9 5 18 10 NO 1006,9 6 0,1
25.05.2019 01:00:00 5,2 4,9 6 4 18 10 NO 1007,3 6 0,1
25.05.2019 00:00:00 5,2 4,9 8 5 17 9 ONO 1007,7 21 0,1
24.05.2019 23:00:00 5,2 4,9 8 4 20 11 ONO 1008,0 23 0,1
24.05.2019 22:00:00 5,3 4,9 7 4 21 12 ONO 1008,5 19 0,2
24.05.2019 21:00:00 5,4 5,0 8 4 19 10 ONO 1008,8 17 0,4
24.05.2019 20:00:00 5,4 5,0 8 5 21 11 ONO 1009,3 11 0,7
24.05.2019 19:00:00 5,5 4,9 11 6 21 11 ONO 1009,8 8 0,7
24.05.2019 18:00:00 5,7 5,0 6 3 24 13 O 1010,4 10 0,5
24.05.2019 17:00:00 5,6 4,6 9 5 22 12 OZO 1010,9 16 0,0
24.05.2019 16:00:00 5,7 4,5 10 5 23 12 OZO 1011,4 44 0,6
24.05.2019 15:00:00 5,7 4,5 10 6 28 15 ZO 1011,9 15 0,8
24.05.2019 14:00:00 5,8 4,6 9 5 21 11 OZO 1012,4 14 0,0
24.05.2019 13:00:00 6,5 4,0 9 5 24 13 ZO 1013,0 26 0,0
24.05.2019 12:00:00 8,3 2,1 12 6 25 13 Z 1013,0 50 0,0
24.05.2019 11:00:00 9,1 -0,8 9 5 21 11 ZO 1013,2 50 0,0
24.05.2019 10:00:00 9,0 0,7 7 4 23 12 ZO 1013,5 50 0,0
24.05.2019 09:00:00 8,1 -0,4 11 6 26 14 ZO 1013,9 50 0,0
24.05.2019 08:00:00 8,3 -0,7 11 6 22 12 ZO 1014,0 50 0,0
24.05.2019 07:00:00 7,9 -0,1 8 5 22 12 OZO 1014,1 50 0,0
24.05.2019 06:00:00 7,3 -0,4 8 5 22 12 O 1014,3 50 0,0
24.05.2019 05:00:00 5,8 0,8 6 4 16 9 O 1014,9 50 0,0
24.05.2019 04:00:00 3,5 1,2 5 3 10 6 ONO 1015,3 50 0,0
24.05.2019 03:00:00 1,2 0,3 4 2 7 4 ONO 1015,5 36 0,0
24.05.2019 02:00:00 2,2 -0,2 4 2 10 5 OZO 1015,5 50 0,0
24.05.2019 01:00:00 2,7 0,1 6 3 11 6 O 1015,6 50 0,0
24.05.2019 00:00:00 1,5 -0,6 3 2 4 2 NNO 1015,8 50 0,0
23.05.2019 23:00:00 3,0 0,2 4 2 6 3 NNO 1015,9 50 0,0
23.05.2019 22:00:00 4,9 0,1 4 2 5 3 N 1015,8 50 0,0
23.05.2019 21:00:00 5,8 -0,7 4 2 6 3 NNW 1015,9 39 0,0
23.05.2019 20:00:00 8,2 -1,3 3 2 10 6 WZW 1016,1 50 0,0
23.05.2019 19:00:00 9,5 -2,5 6 4 16 9 ZZW 1016,1 50 0,0
23.05.2019 18:00:00 10,6 -1,8 9 5 17 9 Z 1016,4 50 0,0
23.05.2019 17:00:00 11,9 -2,3 9 5 19 11 ZZW 1016,6 50 0,0
23.05.2019 16:00:00 12,3 -2,0 9 5 19 10 Z 1017,1 50 0,0
23.05.2019 15:00:00 12,1 -2,2 9 5 19 11 ZW 1017,5 50 0,0
23.05.2019 14:00:00 12,4 -4,7 4 2 21 11 O 1018,1 46 0,0
23.05.2019 13:00:00 12,5 -3,8 12 6 25 14 NNO 1018,3 43 0,0
23.05.2019 12:00:00 11,2 -4,1 8 4 30 16 NNO 1018,5 50 0,0
23.05.2019 11:00:00 9,7 -4,3 11 6 25 13 NO 1018,8 46 0,0
23.05.2019 10:00:00 7,9 -4,2 8 5 19 10 O 1019,3 50 0,0
23.05.2019 09:00:00 8,7 -3,8 7 4 21 12 O 1019,5 50 0,0
23.05.2019 08:00:00 8,1 -3,1 8 5 23 13 ONO 1019,8 50 0,0
23.05.2019 07:00:00 6,5 -3,5 9 5 26 14 ONO 1020,0 50 0,0
23.05.2019 06:00:00 4,3 -3,5 11 6 28 15 NO 1020,0 50 0,0
23.05.2019 05:00:00 2,7 -3,6 9 5 21 11 NO 1020,1 50 0,0
23.05.2019 04:00:00 1,2 -3,7 10 5 20 11 NO 1020,3 50 0,0
23.05.2019 03:00:00 0,9 -3,6 9 5 19 10 NO 1020,3 50 0,0
23.05.2019 02:00:00 1,6 -3,5 9 5 19 11 NNO 1020,2 50 0,0
23.05.2019 01:00:00 2,1 -3,4 9 5 28 15 NO 1020,1 50 0,0
23.05.2019 00:00:00 3,1 -3,0 11 6 24 13 NO 1019,7 50 0,0
22.05.2019 23:00:00 4,2 -2,9 11 6 27 15 NO 1019,4 50 0,0
22.05.2019 22:00:00 5,6 -2,5 10 5 35 19 NO 1018,9 50 0,0
22.05.2019 21:00:00 7,8 -1,7 15 8 34 18 ONO 1018,0 50 0,0
22.05.2019 20:00:00 9,5 -1,0 14 7 32 17 NO 1017,1 50 0,0
22.05.2019 19:00:00 11,1 -1,0 16 9 34 19 NNO 1016,3 50 0,0
22.05.2019 18:00:00 11,7 -0,2 17 9 36 19 N 1016,2 50 0,0
22.05.2019 17:00:00 12,4 0,5 17 9 34 18 NNO 1016,1 50 0,0
22.05.2019 16:00:00 10,8 1,3 13 7 35 19 N 1016,1 50 0,0
22.05.2019 15:00:00 11,0 3,3 17 9 36 20 NNO 1016,3 50 0,0
22.05.2019 14:00:00 9,8 5,0 15 8 31 17 NNO 1016,4 50 0,0
22.05.2019 13:00:00 8,7 5,6 15 8 35 19 NNO 1016,3 35 0,0
22.05.2019 12:00:00 10,0 4,6 18 10 38 21 NNO 1016,1 41 0,0
22.05.2019 11:00:00 12,5 5,4 14 8 30 16 NNO 1015,7 41 0,0
22.05.2019 10:00:00 11,8 6,1 15 8 31 17 NNO 1015,5 33 0,0
22.05.2019 09:00:00 11,7 6,4 14 8 30 16 NNO 1015,2 32 0,0
22.05.2019 08:00:00 12,9 6,9 14 8 27 15 N 1015,2 40 0,0
22.05.2019 07:00:00 11,9 6,8 13 7 26 14 NNO 1015,2 44 0,0
22.05.2019 06:00:00 10,0 6,7 11 6 23 13 NNO 1015,3 50 0,0
22.05.2019 05:00:00 9,3 6,9 9 5 23 12 NNO 1015,5 50 0,0
22.05.2019 04:00:00 8,6 7,5 8 4 16 9 NNO 1015,5 30 0,0
22.05.2019 03:00:00 9,0 8,1 7 4 14 8 NNO 1015,6 17 0,0
22.05.2019 02:00:00 9,9 8,7 8 4 16 9 ONO 1015,4 21 0,0
22.05.2019 01:00:00 10,5 9,3 6 4 11 6 O 1015,6 23 0,0
22.05.2019 00:00:00 9,3 9,0 6 3 10 5 O 1015,7 12 0,0
21.05.2019 23:00:00 9,9 9,3 3 2 4 2 NNO 1015,5 11 0,0
21.05.2019 22:00:00 11,5 10,1 3 1 6 3 NW 1015,3 40 0,0
21.05.2019 21:00:00 13,5 10,7 3 2 6 3 WZW 1015,1 50 0,0
21.05.2019 20:00:00 15,6 10,4 4 2 9 5 WZW 1015,0 50 0,0
21.05.2019 19:00:00 16,2 10,1 6 3 14 8 ZW 1014,9 50 0,0
21.05.2019 18:00:00 19,6 9,5 6 4 17 9 NO 1014,9 50 0,0
21.05.2019 17:00:00 18,7 9,2 11 6 23 13 NNO 1015,2 50 0,0
21.05.2019 16:00:00 20,1 9,9 10 5 24 13 ONO 1015,5 47 0,0
21.05.2019 15:00:00 17,9 9,8 8 4 22 12 ONO 1016,2 50 0,0
21.05.2019 14:00:00 17,2 10,3 11 6 23 12 NO 1016,4 43 0,0
21.05.2019 13:00:00 15,4 10,2 13 7 25 14 NNO 1016,6 48 0,0
21.05.2019 12:00:00 15,0 10,4 11 6 22 12 NNO 1016,7 45 0,0
21.05.2019 11:00:00 14,2 10,6 12 6 22 12 NNO 1016,6 43 0,0
21.05.2019 10:00:00 13,7 10,3 9 5 20 11 NO 1016,5 42 0,0
21.05.2019 09:00:00 12,3 10,2 9 5 19 10 NNO 1016,4 46 0,0
21.05.2019 08:00:00 11,1 9,7 8 5 20 11 NNO 1016,2 26 0,0
21.05.2019 07:00:00 10,5 9,6 9 5 24 13 NO 1016,3 20 0,0
21.05.2019 06:00:00 10,3 9,5 13 7 24 13 NNO 1016,0 15 0,0
21.05.2019 05:00:00 10,5 9,7 9 5 21 11 NO 1015,8 18 0,0
21.05.2019 04:00:00 10,6 10,0 9 5 17 9 NNO 1015,8 23 0,0
21.05.2019 03:00:00 10,6 10,0 11 6 20 11 NO 1015,7 24 0,0
21.05.2019 02:00:00 10,8 10,2 8 4 20 11 NO 1015,8 24 0,0
21.05.2019 01:00:00 11,2 10,6 10 6 19 10 NNO 1015,6 24 0,0
21.05.2019 00:00:00 11,1 10,5 10 5 17 9 NNO 1015,6 19 0,0
20.05.2019 23:00:00 11,4 10,9 10 5 16 9 NO 1015,8 18 0,0
20.05.2019 22:00:00 11,7 11,1 7 4 15 8 ONO 1015,7 17 0,0
20.05.2019 21:00:00 12,1 11,6 6 3 17 9 NO 1015,7 14 0,0
20.05.2019 20:00:00 13,1 12,6 7 4 16 9 ONO 1015,7 18 0,0
20.05.2019 19:00:00 12,8 12,3 8 4 15 8 ONO 1015,7 11 0,0
20.05.2019 18:00:00 12,7 12,4 8 5 16 9 ONO 1015,9 9 0,4
20.05.2019 17:00:00 11,8 11,3 4 2 15 8 NO 1016,2 6 0,3
20.05.2019 16:00:00 11,1 10,2 4 2 11 6 O 1016,5 11 0,0
20.05.2019 15:00:00 10,9 9,5 5 3 15 8 ZO 1016,8 8 0,1

tt = temperatuur
td = dauwpunt
ff = windsnelheid
fx = windstoten
dd = windrichting
ppp = luchtdruk
vv = zicht
rr = neerslag

Weerstations in de omgeving